| time (UTC) | temp F | wind direction | speed MPH | gust MPH | rain 1hr in | rain 24hr in | rain mn in | humidity % | barometer mb |
| 20260505065731 | 57 | 86 | 4.0 | 13.0 | 0.00 | 0.00 | 0.00 | 68 | 1007.3 |
| 20260505064731 | 57 | 68 | 7.0 | 13.0 | 0.00 | 0.00 | 0.00 | 70 | 1007.4 |
| 20260505063726 | 57 | 67 | 12.0 | 22.0 | 0.00 | 0.00 | 0.00 | 70 | 1007.1 |
| 20260505062724 | 56 | 84 | 9.0 | 15.0 | 0.00 | 0.00 | 0.00 | 73 | 1006.6 |
| 20260505061719 | 56 | 20 | 11.0 | 12.0 | 0.00 | 0.00 | 0.00 | 78 | 1006.7 |
| 20260505060714 | 56 | 15 | 5.0 | 11.0 | 0.00 | 0.00 | 0.00 | 80 | 1007.0 |
| 20260505055712 | 56 | 28 | 5.0 | 18.0 | 0.00 | 0.00 | 0.00 | 81 | 1006.5 |
| 20260505054712 | 56 | 53 | 3.0 | 19.0 | 0.00 | 0.00 | 0.00 | 82 | 1006.2 |
| 20260505053708 | 56 | 51 | 8.0 | 14.0 | 0.00 | 0.00 | 0.00 | 84 | 1005.9 |
| 20260505052707 | 57 | 0 | 10.0 | 15.0 | 0.00 | 0.00 | 0.00 | 84 | 1005.6 |
| 20260505051707 | 57 | 49 | 7.0 | 14.0 | 0.00 | 0.00 | 0.00 | 85 | 1006.1 |
| 20260505050703 | 57 | 346 | 9.0 | 12.0 | 0.00 | 0.00 | 0.00 | 85 | 1005.8 |
| 20260505041648 | 62 | 12 | 11.0 | 23.0 | 0.00 | 0.01 | 0.01 | 67 | 1005.9 |
| 20260505040648 | 67 | 4 | 9.0 | 19.0 | 0.00 | 0.01 | 0.01 | 65 | 1005.7 |
| 20260505035648 | 68 | 349 | 4.0 | 6.0 | 0.00 | 0.01 | 0.01 | 75 | 1005.5 |
| 20260505034646 | 71 | 359 | 3.0 | 5.0 | 0.02 | 0.01 | 0.01 | 68 | 1005.1 |
| 20260505033646 | 70 | 50 | 2.0 | 6.0 | 0.02 | 0.00 | 0.00 | 72 | 1005.5 |
| 20260505032642 | 72 | 196 | 3.0 | 6.0 | 0.00 | 0.00 | 0.00 | 65 | 1005.6 |
| 20260505031642 | 73 | 195 | 2.0 | 6.0 | 0.00 | 0.00 | 0.00 | 61 | 1004.8 |
| 20260505030640 | 73 | 167 | 5.0 | 13.0 | 0.00 | 0.00 | 0.00 | 60 | 1004.7 |
| 20260505025637 | 73 | 154 | 2.0 | 6.0 | 0.00 | 0.00 | 0.00 | 58 | 1004.4 |
| 20260505024633 | 73 | 174 | 2.0 | 4.0 | 0.00 | 0.00 | 0.00 | 58 | 1004.3 |
| 20260505023633 | 74 | 140 | 5.0 | 7.0 | 0.00 | 0.00 | 0.00 | 56 | 1004.1 |
| 20260505022628 | 73 | 132 | 4.0 | 7.0 | 0.00 | 0.00 | 0.00 | 56 | 1004.2 |
| 20260505021627 | 74 | 131 | 8.0 | 8.0 | 0.00 | 0.00 | 0.00 | 55 | 1003.9 |
| 20260505020626 | 74 | 122 | 2.0 | 3.0 | 0.00 | 0.00 | 0.00 | 54 | 1003.9 |
| 20260505015625 | 74 | 220 | 0.0 | 7.0 | 0.00 | 0.00 | 0.00 | 53 | 1003.9 |
| 20260505014624 | 75 | 195 | 4.0 | 8.0 | 0.00 | 0.00 | 0.00 | 53 | 1003.5 |
| 20260505013625 | 75 | 139 | 3.0 | 7.0 | 0.00 | 0.00 | 0.00 | 52 | 1003.2 |
| 20260505012620 | 76 | 154 | 3.0 | 5.0 | 0.00 | 0.00 | 0.00 | 51 | 1003.1 |
| 20260505011618 | 77 | 149 | 5.0 | 7.0 | 0.00 | 0.00 | 0.00 | 50 | 1003.2 |
| 20260505010616 | 77 | 136 | 2.0 | 7.0 | 0.00 | 0.00 | 0.00 | 49 | 1003.0 |
| 20260505005615 | 78 | 168 | 2.0 | 10.0 | 0.00 | 0.00 | 0.00 | 49 | 1003.0 |
| 20260505004615 | 78 | 166 | 4.0 | 8.0 | 0.00 | 0.00 | 0.00 | 48 | 1002.9 |
| 20260505003615 | 78 | 156 | 3.0 | 10.0 | 0.00 | 0.00 | 0.00 | 48 | 1002.9 |
| 20260505002614 | 79 | 149 | 3.0 | 8.0 | 0.00 | 0.00 | 0.00 | 46 | 1002.7 |
| 20260505001609 | 80 | 177 | 4.0 | 14.0 | 0.00 | 0.00 | 0.00 | 45 | 1003.0 |
| 20260505000609 | 80 | 200 | 5.0 | 15.0 | 0.00 | 0.00 | 0.00 | 44 | 1002.9 |
| 20260504235609 | 81 | 136 | 9.0 | 14.0 | 0.00 | 0.00 | 0.00 | 43 | 1003.1 |
| 20260504234609 | 82 | 167 | 5.0 | 11.0 | 0.00 | 0.00 | 0.00 | 41 | 1002.7 |
| 20260504233607 | 83 | 166 | 6.0 | 11.0 | 0.00 | 0.00 | 0.00 | 40 | 1002.8 |
| 20260504232607 | 84 | 161 | 7.0 | 14.0 | 0.00 | 0.00 | 0.00 | 39 | 1002.9 |
| 20260504231606 | 85 | 174 | 3.0 | 12.0 | 0.00 | 0.00 | 0.00 | 35 | 1002.9 |
| 20260504230604 | 86 | 146 | 3.0 | 6.0 | 0.00 | 0.00 | 0.00 | 34 | 1002.8 |
| 20260504225601 | 86 | 186 | 1.0 | 5.0 | 0.00 | 0.00 | 0.00 | 31 | 1002.8 |
| 20260504224600 | 85 | 123 | 3.0 | 7.0 | 0.00 | 0.00 | 0.00 | 32 | 1002.8 |
| 20260504223600 | 85 | 229 | 4.0 | 5.0 | 0.00 | 0.00 | 0.00 | 29 | 1003.1 |
| 20260504222559 | 85 | 101 | 4.0 | 7.0 | 0.00 | 0.00 | 0.00 | 30 | 1003.1 |
| 20260504221553 | 85 | 45 | 2.0 | 5.0 | 0.00 | 0.00 | 0.00 | 31 | 1003.2 |
| 20260504220552 | 84 | 144 | 7.0 | 9.0 | 0.00 | 0.00 | 0.00 | 31 | 1003.2 |
| 20260504215551 | 84 | 129 | 7.0 | 9.0 | 0.00 | 0.00 | 0.00 | 30 | 1003.3 |
| 20260504214550 | 84 | 208 | 2.0 | 7.0 | 0.00 | 0.00 | 0.00 | 31 | 1003.5 |
| 20260504213550 | 87 | 199 | 5.0 | 12.0 | 0.00 | 0.00 | 0.00 | 29 | 1003.4 |
| 20260504212548 | 86 | 111 | 4.0 | 9.0 | 0.00 | 0.00 | 0.00 | 30 | 1003.7 |
| 20260504211548 | 84 | 152 | 6.0 | 9.0 | 0.00 | 0.00 | 0.00 | 32 | 1003.8 |
| 20260504210548 | 83 | 136 | 2.0 | 11.0 | 0.00 | 0.00 | 0.00 | 32 | 1003.7 |
| 20260504205548 | 83 | 185 | 5.0 | 9.0 | 0.00 | 0.00 | 0.00 | 32 | 1004.0 |
| 20260504204544 | 84 | 170 | 3.0 | 6.0 | 0.00 | 0.00 | 0.00 | 33 | 1003.9 |
| 20260504203540 | 86 | 164 | 7.0 | 10.0 | 0.00 | 0.00 | 0.00 | 29 | 1004.2 |
| 20260504202539 | 86 | 184 | 3.0 | 5.0 | 0.00 | 0.00 | 0.00 | 29 | 1004.4 |
| 20260504201539 | 84 | 147 | 4.0 | 5.0 | 0.00 | 0.00 | 0.00 | 30 | 1004.4 |
| 20260504200538 | 86 | 132 | 5.0 | 9.0 | 0.00 | 0.00 | 0.00 | 29 | 1004.7 |
| 20260504195537 | 86 | 140 | 4.0 | 11.0 | 0.00 | 0.00 | 0.00 | 30 | 1004.8 |
| 20260504194537 | 86 | 158 | 3.0 | 4.0 | 0.00 | 0.00 | 0.00 | 30 | 1004.7 |
| 20260504193535 | 86 | 247 | 1.0 | 3.0 | 0.00 | 0.00 | 0.00 | 27 | 1005.0 |
| 20260504192531 | 84 | 75 | 2.0 | 8.0 | 0.00 | 0.00 | 0.00 | 27 | 1005.0 |
| 20260504191527 | 85 | 178 | 4.0 | 7.0 | 0.00 | 0.00 | 0.00 | 29 | 1005.1 |
| 20260504190525 | 85 | 120 | 4.0 | 5.0 | 0.00 | 0.00 | 0.00 | 29 | 1005.1 |
| 20260504185524 | 85 | 79 | 0.0 | 6.0 | 0.00 | 0.00 | 0.00 | 28 | 1005.4 |
| 20260504184521 | 84 | 257 | 4.0 | 6.0 | 0.00 | 0.00 | 0.00 | 30 | 1005.3 |
| 20260504183520 | 82 | 101 | 0.0 | 5.0 | 0.00 | 0.00 | 0.00 | 33 | 1005.6 |
| 20260504182521 | 83 | 64 | 6.0 | 7.0 | 0.00 | 0.00 | 0.00 | 32 | 1005.4 |
| 20260504181515 | 82 | 217 | 3.0 | 8.0 | 0.00 | 0.00 | 0.00 | 32 | 1005.7 |
| 20260504180512 | 82 | 130 | 3.0 | 8.0 | 0.00 | 0.00 | 0.00 | 34 | 1005.8 |
| 20260504175507 | 81 | 168 | 2.0 | 8.0 | 0.00 | 0.00 | 0.00 | 36 | 1005.7 |
| 20260504174502 | 80 | 136 | 3.0 | 9.0 | 0.00 | 0.00 | 0.00 | 38 | 1006.0 |
| 20260504173501 | 80 | 126 | 4.0 | 7.0 | 0.00 | 0.00 | 0.00 | 33 | 1005.7 |
| 20260504172500 | 80 | 180 | 3.0 | 5.0 | 0.00 | 0.00 | 0.00 | 35 | 1005.7 |
| 20260504171500 | 81 | 154 | 4.0 | 6.0 | 0.00 | 0.00 | 0.00 | 33 | 1005.9 |
| 20260504170459 | 80 | 156 | 4.0 | 11.0 | 0.00 | 0.00 | 0.00 | 35 | 1006.0 |
| 20260504150437 | 73 | 236 | 11.0 | 16.0 | 0.00 | 0.00 | 0.00 | 45 | 1005.8 |
| 20260504140429 | 66 | 220 | 5.0 | 11.0 | 0.00 | 0.00 | 0.00 | 57 | 1006.0 |
| 20260504130423 | 62 | 198 | 3.0 | 6.0 | 0.00 | 0.00 | 0.00 | 64 | 1006.1 |
| 20260504110357 | 58 | 98 | 1.0 | 4.0 | 0.00 | 0.00 | 0.00 | 65 | 1006.0 |
| 20260504100343 | 62 | 204 | 6.0 | 10.0 | 0.00 | 0.00 | 0.00 | 57 | 1006.5 |
| 20260504081320 | 65 | 222 | 10.0 | 13.0 | 0.00 | 0.00 | 0.00 | 50 | 1006.9 |
| 20260504080319 | 65 | 255 | 2.0 | 15.0 | 0.00 | 0.00 | 0.00 | 50 | 1007.1 |